When you browse on this site, cookies collect data to enhance your experience and personalize the content and advertising you see.
Visit our Privacy Policy to learn more. By continuing to use the site, you agree to this use of cookies and data.
  • In Hungary
  • List of Countries
  • For 7 days
  • Water Temperature
  • Weather Map
  • News
  • Weather Widgets
  • user-avatar
    Login

    Hourly Weather Enterprise

    Today, 17 November, Sunday

    Time Temperature Precipitation Wind Pressure Humidity
    00:00 +16°C° 0 mm 3 mps 696 mmHg 24%
    01:00 +15°C° 0 mm 2 mps 696 mmHg 25%
    02:00 +14°C° 0 mm 2 mps 696 mmHg 27%
    03:00 +13°C° 0 mm 2 mps 696 mmHg 29%
    04:00 +12°C° 0 mm 2 mps 696 mmHg 31%
    05:00 +12°C° 0 mm 2 mps 696 mmHg 31%
    06:00 +13°C° 0 mm 1 mps 696 mmHg 31%
    07:00 +13°C° 0 mm 1 mps 697 mmHg 31%
    08:00 +15°C° 0 mm 2 mps 697 mmHg 27%
    09:00 +17°C° 0 mm 2 mps 697 mmHg 24%
    10:00 +20°C° 0 mm 2 mps 698 mmHg 20%
    11:00 +21°C° 0 mm 2 mps 697 mmHg 19%
    12:00 +23°C° 0 mm 2 mps 697 mmHg 17%
    13:00 +24°C° 0 mm 2 mps 696 mmHg 16%
    14:00 +23°C° 0 mm 2 mps 695 mmHg 17%
    15:00 +22°C° 0 mm 1 mps 695 mmHg 18%
    16:00 +21°C° 0 mm 1 mps 694 mmHg 20%
    17:00 +19°C° 0 mm 1 mps 694 mmHg 21%
    18:00 +18°C° 0 mm 1 mps 694 mmHg 23%
    19:00 +15°C° 0 mm 1 mps 694 mmHg 25%
    20:00 +15°C° 0 mm 1 mps 694 mmHg 26%
    21:00 +14°C° 0 mm 1 mps 694 mmHg 26%
    22:00 +14°C° 0 mm 1 mps 694 mmHg 27%
    23:00 +13°C° 0 mm 0 mps 694 mmHg 28%

    Tomorrow, 18 November, Monday

    Time Temperature Precipitation Wind Pressure Humidity
    00:00 +12°C° 0 mm 0 mps 694 mmHg 29%
    01:00 +12°C° 0 mm 0 mps 694 mmHg 31%
    02:00 +13°C° 0 mm 1 mps 694 mmHg 31%
    03:00 +13°C° 0 mm 1 mps 694 mmHg 32%
    04:00 +12°C° 0 mm 1 mps 694 mmHg 32%
    05:00 +13°C° 0 mm 1 mps 694 mmHg 31%
    06:00 +13°C° 0 mm 1 mps 694 mmHg 29%
    07:00 +12°C° 0 mm 0 mps 694 mmHg 27%
    08:00 +16°C° 0 mm 1 mps 694 mmHg 23%
    09:00 +20°C° 0 mm 1 mps 695 mmHg 19%
    10:00 +23°C° 0 mm 1 mps 695 mmHg 16%
    11:00 +24°C° 0 mm 1 mps 694 mmHg 15%
    12:00 +24°C° 0 mm 1 mps 694 mmHg 14%
    13:00 +25°C° 0 mm 1 mps 693 mmHg 13%
    14:00 +24°C° 0 mm 1 mps 692 mmHg 15%
    15:00 +23°C° 0 mm 1 mps 692 mmHg 17%
    16:00 +20°C° 0 mm 0 mps 691 mmHg 18%
    17:00 +20°C° 0 mm 1 mps 691 mmHg 21%
    18:00 +18°C° 0 mm 1 mps 690 mmHg 23%
    19:00 +16°C° 0 mm 1 mps 690 mmHg 26%
    20:00 +15°C° 0 mm 1 mps 690 mmHg 27%
    21:00 +15°C° 0 mm 1 mps 690 mmHg 27%
    22:00 +15°C° 0 mm 1 mps 690 mmHg 28%
    23:00 +15°C° 0 mm 1 mps 690 mmHg 29%

    Day after tomorrow, 19 November, Tuesday

    Time Temperature Precipitation Wind Pressure Humidity
    00:00 +14°C° 0 mm 1 mps 689 mmHg 30%
    01:00 +14°C° 0 mm 1 mps 689 mmHg 31%
    02:00 +13°C° 0 mm 1 mps 689 mmHg 31%
    03:00 +13°C° 0 mm 1 mps 688 mmHg 31%
    04:00 +13°C° 0 mm 1 mps 688 mmHg 30%
    05:00 +13°C° 0 mm 1 mps 688 mmHg 28%
    06:00 +14°C° 0 mm 1 mps 688 mmHg 26%
    07:00 +14°C° 0 mm 1 mps 688 mmHg 24%
    08:00 +17°C° 0 mm 2 mps 688 mmHg 22%
    09:00 +19°C° 0 mm 3 mps 689 mmHg 21%
    10:00 +22°C° 0 mm 3 mps 689 mmHg 19%
    11:00 +22°C° 0.1 mm 5 mps 688 mmHg 21%
    12:00 +23°C° 0.1 mm 6 mps 687 mmHg 23%
    13:00 +24°C° 0.1 mm 7 mps 686 mmHg 25%
    14:00 +23°C° 0 mm 7 mps 685 mmHg 28%
    15:00 +22°C° 0 mm 6 mps 685 mmHg 31%
    16:00 +22°C° 0 mm 6 mps 684 mmHg 33%
    17:00 +20°C° 0.1 mm 5 mps 683 mmHg 44%
    18:00 +19°C° 0.1 mm 5 mps 683 mmHg 54%
    19:00 +17°C° 0.1 mm 4 mps 683 mmHg 65%
    20:00 +17°C° 0 mm 4 mps 682 mmHg 57%
    21:00 +15°C° 0 mm 4 mps 682 mmHg 49%
    22:00 +15°C° 0 mm 5 mps 682 mmHg 41%
    23:00 +14°C° 0 mm 4 mps 681 mmHg 44%

    20 November, Wednesday

    Time Temperature Precipitation Wind Pressure Humidity
    00:00 +13°C° 0 mm 4 mps 681 mmHg 46%
    01:00 +13°C° 0 mm 4 mps 681 mmHg 49%
    02:00 +12°C° 0 mm 4 mps 681 mmHg 51%
    03:00 +12°C° 0 mm 4 mps 681 mmHg 53%
    04:00 +12°C° 0 mm 3 mps 681 mmHg 55%
    05:00 +11°C° 0 mm 3 mps 681 mmHg 59%
    06:00 +11°C° 0 mm 4 mps 681 mmHg 63%
    07:00 +10°C° 0 mm 4 mps 681 mmHg 68%
    08:00 +11°C° 0 mm 4 mps 681 mmHg 61%
    09:00 +13°C° 0 mm 4 mps 682 mmHg 54%
    10:00 +14°C° 0 mm 5 mps 682 mmHg 47%
    11:00 +14°C° 0 mm 5 mps 682 mmHg 46%
    12:00 +14°C° 0 mm 6 mps 681 mmHg 46%
    13:00 +15°C° 0 mm 7 mps 681 mmHg 46%
    14:00 +14°C° 0.1 mm 6 mps 681 mmHg 50%
    15:00 +13°C° 0.1 mm 5 mps 681 mmHg 53%
    16:00 +12°C° 0.1 mm 4 mps 681 mmHg 57%
    17:00 +11°C° 0 mm 3 mps 681 mmHg 60%
    18:00 +10°C° 0 mm 2 mps 682 mmHg 64%
    19:00 +10°C° 0 mm 1 mps 682 mmHg 67%
    20:00 +10°C° 0 mm 1 mps 682 mmHg 69%
    21:00 +9°C° 0 mm 1 mps 683 mmHg 71%
    22:00 +9°C° 0 mm 1 mps 683 mmHg 73%
    23:00 +9°C° 0 mm 1 mps 684 mmHg 74%

    21 November, Thursday

    Time Temperature Precipitation Wind Pressure Humidity
    00:00 +9°C° 0 mm 1 mps 684 mmHg 74%
    01:00 +9°C° 0 mm 1 mps 684 mmHg 75%
    02:00 +8°C° 0 mm 1 mps 685 mmHg 78%
    03:00 +7°C° 0 mm 1 mps 685 mmHg 80%
    04:00 +7°C° 0 mm 1 mps 685 mmHg 83%
    05:00 +7°C° 0 mm 1 mps 686 mmHg 82%
    06:00 +7°C° 0 mm 1 mps 686 mmHg 81%
    07:00 +7°C° 0 mm 1 mps 687 mmHg 80%
    08:00 +9°C° 0 mm 1 mps 688 mmHg 72%
    09:00 +11°C° 0 mm 1 mps 689 mmHg 63%
    10:00 +12°C° 0 mm 1 mps 690 mmHg 54%
    11:00 +13°C° 0 mm 1 mps 690 mmHg 51%
    12:00 +14°C° 0 mm 1 mps 690 mmHg 48%
    13:00 +14°C° 0 mm 1 mps 689 mmHg 44%
    14:00 +14°C° 0 mm 1 mps 690 mmHg 44%
    15:00 +14°C° 0 mm 1 mps 690 mmHg 44%
    16:00 +14°C° 0 mm 1 mps 690 mmHg 43%
    17:00 +13°C° 0 mm 1 mps 691 mmHg 48%
    18:00 +12°C° 0 mm 1 mps 691 mmHg 53%
    19:00 +10°C° 0 mm 1 mps 691 mmHg 58%
    20:00 +10°C° 0 mm 1 mps 692 mmHg 60%
    21:00 +9°C° 0 mm 1 mps 692 mmHg 62%
    22:00 +9°C° 0 mm 1 mps 693 mmHg 64%
    23:00 +8°C° 0 mm 1 mps 693 mmHg 66%

    22 November, Friday

    Time Temperature Precipitation Wind Pressure Humidity
    00:00 +8°C° 0 mm 1 mps 693 mmHg 67%
    01:00 +7°C° 0 mm 0 mps 693 mmHg 69%
    02:00 +6°C° 0 mm 0 mps 693 mmHg 70%
    03:00 +6°C° 0 mm 0 mps 693 mmHg 72%
    04:00 +6°C° 0 mm 0 mps 694 mmHg 73%
    05:00 +6°C° 0 mm 0 mps 694 mmHg 72%
    06:00 +7°C° 0 mm 0 mps 695 mmHg 71%
    07:00 +8°C° 0 mm 1 mps 695 mmHg 70%
    08:00 +10°C° 0 mm 1 mps 696 mmHg 64%
    09:00 +12°C° 0 mm 1 mps 696 mmHg 57%
    10:00 +13°C° 0 mm 2 mps 697 mmHg 51%
    11:00 +14°C° 0 mm 2 mps 696 mmHg 48%
    12:00 +15°C° 0 mm 2 mps 696 mmHg 46%
    13:00 +15°C° 0 mm 2 mps 696 mmHg 44%
    14:00 +15°C° 0 mm 2 mps 695 mmHg 44%
    15:00 +15°C° 0 mm 2 mps 695 mmHg 45%
    16:00 +14°C° 0 mm 2 mps 695 mmHg 46%
    17:00 +13°C° 0 mm 2 mps 695 mmHg 50%
    18:00 +12°C° 0 mm 2 mps 695 mmHg 54%
    19:00 +10°C° 0 mm 2 mps 695 mmHg 58%
    20:00 +10°C° 0 mm 2 mps 695 mmHg 58%
    21:00 +10°C° 0 mm 2 mps 695 mmHg 58%
    22:00 +10°C° 0 mm 2 mps 695 mmHg 58%
    23:00 +9°C° 0 mm 2 mps 695 mmHg 59%
    Show more